Weather History for Stanley, ND

Change the Weather History Date:

Saturday, October 19, 2013

  Actual Average (KMOT) Record (KMOT)
Temperature  
Mean Temperature 41 °F 43 °F  
Max Temperature 50 °F 54 °F 84 °F (2003)
Min Temperature 32 °F 33 °F 5 °F (1917)
Degree Days  
Heating Degree Days 24 22  
Month to date heating degree days 339  
Since 1 July heating degree days 659  
Cooling Degree Days 0 0  
Month to date cooling degree days 0  
Year to date cooling degree days 444  
Moisture  
Dew Point 36 °F    
Average Humidity 89    
Maximum Humidity 100    
Minimum Humidity 62    
Precipitation  
Precipitation 0.08 in 0.04 in 0.24 in (1984)
Month to date precipitation 0.80  
Year to date precipitation 15.70  
Sea Level Pressure  
Sea Level Pressure 29.71 in    
Wind  
Wind Speed 5 mph (WSW)    
Max Wind Speed 14 mph    
Max Gust Speed 20 mph    
Visibility 10 miles    
Events Rain , Snow    
T = Trace of Precipitation, MM = Missing Value Source: NWS Daily Summary

Daily Weather History Graph

Daily Weather History Graph

Search for Another Location

Airport:

Trip Planner

Search our weather history database for the weather conditions in past years. The results will help you decide how hot, cold, wet, or windy it might be!

Date:

Astronomy

Oct. 19, 2013 Rise Set
Actual Time 8:15 AM CDT 6:52 PM CDT
Civil Twilight 7:43 AM CDT 7:24 PM CDT
Nautical Twilight 7:07 AM CDT 8:00 PM CDT
Astronomical Twilight 6:31 AM CDT 8:36 PM CDT
Moon 7:15 PM CDT (10/19) 9:00 AM CDT (10/19)
Length of Visible Light 11h 40m
Length of Day
10h 36m
Waxing Gibbous, 99% of the Moon is Illuminated
Oct 19
Waxing Gibbous
Oct 26
Last Quarter
Nov 3
New
Nov 9
First Quarter
Nov 17
Full

Hourly Weather History & Observations

Time (CDT) Temp. Windchill Dew Point Humidity Pressure Visibility Wind Dir Wind Speed Gust Speed Precip Events Conditions
12:15 AM 37.4 °F 32.8 °F 33.8 °F 87% 29.79 in 10.0 mi NW 5.8 mph - N/A   Overcast
12:35 AM 37.4 °F 32.8 °F 33.8 °F 87% 29.79 in 10.0 mi NW 5.8 mph - N/A   Overcast
12:55 AM 33.8 °F 28.6 °F 32.0 °F 93% 29.79 in 10.0 mi WNW 5.8 mph - N/A   Overcast
1:15 AM 32.0 °F 27.5 °F 32.0 °F 100% 29.79 in 10.0 mi WNW 4.6 mph - N/A   Overcast
1:35 AM 35.6 °F 29.2 °F 35.6 °F 100% 29.79 in 10.0 mi NE 8.1 mph - N/A   Overcast
1:55 AM 35.6 °F 32.8 °F 33.8 °F 93% 29.79 in 10.0 mi NE 3.5 mph - N/A   Overcast
2:15 AM 35.6 °F 31.7 °F 32.0 °F 87% 29.79 in 10.0 mi NE 4.6 mph - N/A   Overcast
2:35 AM 35.6 °F 31.7 °F 32.0 °F 87% 29.79 in 10.0 mi NE 4.6 mph - N/A   Overcast
2:55 AM 35.6 °F - 33.8 °F 93% 29.79 in 10.0 mi Calm Calm - N/A   Overcast
3:15 AM 33.8 °F - 32.0 °F 93% 29.79 in 10.0 mi Calm Calm - N/A   Overcast
3:35 AM 33.8 °F - 32.0 °F 93% 29.79 in 10.0 mi Calm Calm - N/A   Overcast
3:55 AM 32.0 °F - 32.0 °F 100% 29.79 in 10.0 mi Calm Calm - N/A   Overcast
4:15 AM 32.0 °F 28.7 °F 32.0 °F 100% 29.79 in 10.0 mi NNE 3.5 mph - N/A   Overcast
4:35 AM 32.0 °F - 32.0 °F 100% 29.79 in 10.0 mi Calm Calm - N/A   Overcast
4:55 AM 32.0 °F - 32.0 °F 100% 29.79 in 10.0 mi Calm Calm - N/A   Overcast
5:15 AM 32.0 °F - 32.0 °F 100% 29.78 in 10.0 mi Calm Calm - N/A   Overcast
5:35 AM 32.0 °F - 32.0 °F 100% 29.79 in 10.0 mi Calm Calm - N/A   Overcast
5:55 AM 33.8 °F - 32.0 °F 93% 29.79 in 10.0 mi Calm Calm - N/A   Overcast
6:15 AM 33.8 °F - 32.0 °F 93% 29.79 in 10.0 mi Calm Calm - N/A   Overcast
6:35 AM 33.8 °F - 32.0 °F 93% 29.80 in 10.0 mi Calm Calm - N/A   Overcast
6:55 AM 33.8 °F - 32.0 °F 93% 29.80 in 10.0 mi Calm Calm - N/A   Overcast
7:15 AM 32.0 °F 27.5 °F 32.0 °F 100% 29.80 in 10.0 mi WSW 4.6 mph - N/A Snow Light Snow
7:35 AM 32.0 °F 27.5 °F 32.0 °F 100% 29.80 in 9.0 mi WSW 4.6 mph - 0.01 in Snow Light Snow
7:55 AM 32.0 °F - 32.0 °F 100% 29.80 in 5.0 mi Calm Calm - 0.08 in Snow Light Snow
8:15 AM 32.0 °F - 32.0 °F 100% 29.80 in 10.0 mi Calm Calm - N/A Snow Light Snow
8:35 AM 32.0 °F - 32.0 °F 100% 29.79 in 10.0 mi Calm Calm - N/A Rain Light Rain
8:55 AM 32.0 °F 28.7 °F 32.0 °F 100% 29.79 in 10.0 mi SSE 3.5 mph - N/A   Scattered Clouds
9:15 AM 32.0 °F 28.7 °F 32.0 °F 100% 29.78 in 10.0 mi SSE 3.5 mph - N/A   Mostly Cloudy
9:35 AM 32.0 °F 27.5 °F 32.0 °F 100% 29.78 in 10.0 mi South 4.6 mph - N/A   Partly Cloudy
9:55 AM 32.0 °F 27.5 °F 32.0 °F 100% 29.77 in 10.0 mi SSW 4.6 mph - N/A   Mostly Cloudy
10:15 AM 33.8 °F 28.6 °F 33.8 °F 100% 29.77 in 10.0 mi SSW 5.8 mph - N/A   Overcast
10:35 AM 35.6 °F 30.7 °F 35.6 °F 100% 29.77 in 10.0 mi South 5.8 mph - N/A   Scattered Clouds
10:55 AM 37.4 °F 32.8 °F 37.4 °F 100% 29.77 in 10.0 mi SSW 5.8 mph - N/A   Scattered Clouds
11:15 AM 39.2 °F 34.2 °F 37.4 °F 93% 29.76 in 10.0 mi SSW 6.9 mph - N/A   Scattered Clouds
11:35 AM 41.0 °F 35.8 °F 37.4 °F 87% 29.75 in 10.0 mi South 8.1 mph - N/A   Clear
11:55 AM 41.0 °F 35.8 °F 37.4 °F 87% 29.75 in 10.0 mi SSW 8.1 mph - N/A   Clear
1:55 PM 46.4 °F 43.5 °F 35.6 °F 66% 29.70 in 10.0 mi SW 5.8 mph - N/A   Overcast
2:15 PM 46.4 °F 42.9 °F 35.6 °F 66% 29.69 in 10.0 mi SSW 6.9 mph - N/A   Mostly Cloudy
2:55 PM 48.2 °F - 37.4 °F 66% 29.67 in 10.0 mi SSW 8.1 mph - N/A   Scattered Clouds
3:15 PM 48.2 °F - 35.6 °F 62% 29.67 in 10.0 mi SSW 6.9 mph - N/A   Partly Cloudy
3:35 PM 50.0 °F - 37.4 °F 62% 29.66 in 10.0 mi SSW 11.5 mph - N/A   Partly Cloudy
3:55 PM 48.2 °F - 37.4 °F 66% 29.66 in 10.0 mi SSW 8.1 mph - N/A   Clear
4:15 PM 48.2 °F - 39.2 °F 71% 29.65 in 10.0 mi South 9.2 mph - N/A   Clear
4:35 PM 48.2 °F - 39.2 °F 71% 29.65 in 10.0 mi SSW 6.9 mph - N/A   Clear
4:55 PM 48.2 °F - 39.2 °F 71% 29.64 in 10.0 mi South 10.4 mph - N/A   Partly Cloudy
5:15 PM 48.2 °F - 37.4 °F 66% 29.63 in 10.0 mi SSW 8.1 mph - N/A   Scattered Clouds
5:35 PM 48.2 °F - 39.2 °F 71% 29.63 in 10.0 mi South 5.8 mph - N/A   Mostly Cloudy
5:55 PM 48.2 °F - 39.2 °F 71% 29.63 in 10.0 mi SSW 3.5 mph - N/A   Overcast
6:15 PM 46.4 °F 45.2 °F 41.0 °F 81% 29.63 in 10.0 mi South 3.5 mph - N/A   Mostly Cloudy
6:35 PM 46.4 °F 44.3 °F 41.0 °F 81% 29.63 in 10.0 mi SSW 4.6 mph - N/A   Overcast
6:55 PM 46.4 °F 44.3 °F 41.0 °F 81% 29.62 in 10.0 mi SSW 4.6 mph - N/A   Overcast
7:15 PM 46.4 °F 45.2 °F 41.0 °F 81% 29.62 in 10.0 mi West 3.5 mph - N/A   Overcast
7:35 PM 46.4 °F 44.3 °F 37.4 °F 71% 29.61 in 10.0 mi West 4.6 mph - N/A   Overcast
7:55 PM 46.4 °F 44.3 °F 39.2 °F 76% 29.60 in 10.0 mi West 4.6 mph - N/A Rain Light Rain
8:15 PM 44.6 °F 40.2 °F 41.0 °F 87% 29.60 in 10.0 mi West 8.1 mph - N/A   Overcast
8:35 PM 44.6 °F 41.4 °F 42.8 °F 93% 29.60 in 10.0 mi West 5.8 mph - N/A Rain Light Rain
8:55 PM 44.6 °F 42.2 °F 44.6 °F 100% 29.60 in 10.0 mi WNW 4.6 mph - N/A Rain Light Rain
9:15 PM 44.6 °F 43.1 °F 42.8 °F 93% 29.59 in 10.0 mi NW 3.5 mph - N/A Rain Light Rain
9:35 PM 44.6 °F 41.4 °F 42.8 °F 93% 29.59 in 10.0 mi NNW 5.8 mph - N/A   Mostly Cloudy
9:55 PM 44.6 °F 42.2 °F 42.8 °F 93% 29.60 in 10.0 mi NW 4.6 mph - N/A Rain Light Rain
10:15 PM 44.6 °F 41.4 °F 44.6 °F 100% 29.60 in 10.0 mi West 5.8 mph - N/A   Overcast
10:35 PM 44.6 °F 40.7 °F 44.6 °F 100% 29.60 in 10.0 mi WNW 6.9 mph - N/A   Overcast
10:55 PM 44.6 °F 38.8 °F 44.6 °F 100% 29.60 in 10.0 mi WNW 11.5 mph 18.4 mph N/A Rain Light Rain
11:15 PM 42.8 °F 37.0 °F 42.8 °F 100% 29.60 in 10.0 mi NW 10.4 mph 18.4 mph N/A Rain Light Rain
11:35 PM 42.8 °F 38.0 °F 42.8 °F 100% 29.60 in 10.0 mi NW 8.1 mph - N/A Rain Light Rain
11:55 PM 42.8 °F 35.8 °F 42.8 °F 100% 29.60 in 9.0 mi NNW 13.8 mph 19.6 mph N/A Rain Light Rain